When you browse on this site, cookies collect data to enhance your experience and personalize the content and advertising you see.
Visit our Privacy Policy to learn more. By continuing to use the site, you agree to this use of cookies and data.
  • Em Portugal
  • Lista de países
  • Para 7 dias
  • Temperatura da água
  • Mapa do tempo
  • Widgets de tempo
  • user-avatar
    Iniciar Sessão

    Previsão horária em Wicklow

    Hoje, 26 Agosto, Segunda-feira

    Tempo Temperatura Precipitação Vento Pressão Humidade
    00:00 +12°C° 0 mm 1 m/s 721 mmHg 92%
    01:00 +11°C° 0 mm 1 m/s 721 mmHg 92%
    02:00 +10°C° 0 mm 1 m/s 720 mmHg 93%
    03:00 +9°C° 0 mm 0 m/s 720 mmHg 93%
    04:00 +10°C° 0 mm 1 m/s 720 mmHg 93%
    05:00 +10°C° 0 mm 1 m/s 720 mmHg 93%
    06:00 +10°C° 0 mm 1 m/s 720 mmHg 93%
    07:00 +11°C° 0 mm 1 m/s 720 mmHg 88%
    08:00 +13°C° 0 mm 1 m/s 720 mmHg 83%
    09:00 +15°C° 0 mm 1 m/s 721 mmHg 78%
    10:00 +16°C° 0 mm 2 m/s 721 mmHg 73%
    11:00 +17°C° 0 mm 2 m/s 721 mmHg 69%
    12:00 +18°C° 0 mm 3 m/s 721 mmHg 64%
    13:00 +18°C° 0 mm 3 m/s 721 mmHg 65%
    14:00 +18°C° 0 mm 3 m/s 720 mmHg 66%
    15:00 +18°C° 0 mm 4 m/s 720 mmHg 67%
    16:00 +18°C° 0 mm 3 m/s 720 mmHg 71%
    17:00 +17°C° 0 mm 3 m/s 720 mmHg 75%
    18:00 +16°C° 0 mm 3 m/s 719 mmHg 79%
    19:00 +15°C° 0 mm 2 m/s 719 mmHg 84%
    20:00 +13°C° 0 mm 2 m/s 719 mmHg 89%
    21:00 +11°C° 0 mm 1 m/s 719 mmHg 94%
    22:00 +11°C° 0 mm 1 m/s 719 mmHg 94%
    23:00 +10°C° 0 mm 1 m/s 718 mmHg 94%

    Amanhã, 27 Agosto, Terça-feira

    Tempo Temperatura Precipitação Vento Pressão Humidade
    00:00 +10°C° 0 mm 1 m/s 718 mmHg 94%
    01:00 +9°C° 0 mm 2 m/s 718 mmHg 95%
    02:00 +8°C° 0 mm 2 m/s 717 mmHg 96%
    03:00 +8°C° 0 mm 2 m/s 717 mmHg 96%
    04:00 +8°C° 0 mm 2 m/s 717 mmHg 96%
    05:00 +8°C° 0 mm 2 m/s 717 mmHg 96%
    06:00 +8°C° 0 mm 3 m/s 717 mmHg 96%
    07:00 +10°C° 0 mm 3 m/s 717 mmHg 92%
    08:00 +11°C° 0 mm 3 m/s 717 mmHg 88%
    09:00 +13°C° 0 mm 4 m/s 717 mmHg 85%
    10:00 +13°C° 0 mm 4 m/s 717 mmHg 85%
    11:00 +13°C° 0 mm 4 m/s 717 mmHg 85%
    12:00 +13°C° 0 mm 4 m/s 717 mmHg 85%
    13:00 +14°C° 0 mm 4 m/s 716 mmHg 84%
    14:00 +14°C° 0 mm 5 m/s 716 mmHg 84%
    15:00 +14°C° 0 mm 5 m/s 716 mmHg 83%
    16:00 +14°C° 0 mm 5 m/s 716 mmHg 84%
    17:00 +14°C° 0 mm 5 m/s 716 mmHg 86%
    18:00 +14°C° 0 mm 5 m/s 715 mmHg 87%
    19:00 +13°C° 0 mm 5 m/s 716 mmHg 89%
    20:00 +13°C° 0 mm 5 m/s 716 mmHg 91%
    21:00 +13°C° 0 mm 4 m/s 716 mmHg 92%
    22:00 +12°C° 0.1 mm 4 m/s 716 mmHg 93%
    23:00 +11°C° 0.1 mm 4 m/s 716 mmHg 94%

    Depois de amanhã, 28 Agosto, Quarta-feira

    Tempo Temperatura Precipitação Vento Pressão Humidade
    00:00 +11°C° 0.1 mm 3 m/s 716 mmHg 95%
    01:00 +10°C° 0.8 mm 2 m/s 715 mmHg 96%
    02:00 +10°C° 0.8 mm 2 m/s 715 mmHg 96%
    03:00 +10°C° 0.8 mm 1 m/s 715 mmHg 97%
    04:00 +10°C° 0.7 mm 1 m/s 715 mmHg 97%
    05:00 +10°C° 0.7 mm 1 m/s 715 mmHg 97%
    06:00 +10°C° 0.7 mm 1 m/s 715 mmHg 96%
    07:00 +9°C° 0.2 mm 2 m/s 715 mmHg 95%
    08:00 +9°C° 0.2 mm 2 m/s 715 mmHg 93%
    09:00 +10°C° 0.2 mm 2 m/s 715 mmHg 91%
    10:00 +10°C° 0 mm 2 m/s 715 mmHg 86%
    11:00 +11°C° 0 mm 3 m/s 715 mmHg 80%
    12:00 +12°C° 0 mm 3 m/s 715 mmHg 74%
    13:00 +12°C° 0 mm 3 m/s 716 mmHg 70%
    14:00 +13°C° 0 mm 3 m/s 716 mmHg 65%
    15:00 +14°C° 0 mm 3 m/s 716 mmHg 61%
    16:00 +13°C° 0 mm 3 m/s 716 mmHg 66%
    17:00 +14°C° 0 mm 2 m/s 716 mmHg 72%
    18:00 +13°C° 0 mm 2 m/s 716 mmHg 77%
    19:00 +12°C° 0 mm 2 m/s 717 mmHg 82%
    20:00 +9°C° 0 mm 2 m/s 717 mmHg 86%
    21:00 +9°C° 0 mm 1 m/s 717 mmHg 91%
    22:00 +8°C° 0 mm 1 m/s 717 mmHg 91%
    23:00 +7°C° 0 mm 2 m/s 717 mmHg 92%

    29 Agosto, Quinta-feira

    Tempo Temperatura Precipitação Vento Pressão Humidade
    00:00 +7°C° 0 mm 2 m/s 717 mmHg 92%
    01:00 +6°C° 0 mm 2 m/s 717 mmHg 94%
    02:00 +6°C° 0 mm 2 m/s 717 mmHg 95%
    03:00 +5°C° 0 mm 3 m/s 717 mmHg 96%
    04:00 +5°C° 0 mm 3 m/s 717 mmHg 96%
    05:00 +4°C° 0 mm 3 m/s 717 mmHg 96%
    06:00 +4°C° 0 mm 3 m/s 717 mmHg 96%
    07:00 +7°C° 0 mm 3 m/s 718 mmHg 89%
    08:00 +8°C° 0 mm 4 m/s 718 mmHg 83%
    09:00 +9°C° 0 mm 5 m/s 719 mmHg 77%
    10:00 +10°C° 0 mm 5 m/s 719 mmHg 74%
    11:00 +12°C° 0 mm 5 m/s 719 mmHg 72%
    12:00 +13°C° 0 mm 5 m/s 719 mmHg 69%
    13:00 +14°C° 0 mm 6 m/s 719 mmHg 71%
    14:00 +14°C° 0 mm 6 m/s 719 mmHg 74%
    15:00 +14°C° 0 mm 6 m/s 719 mmHg 76%
    16:00 +14°C° 0.1 mm 6 m/s 719 mmHg 79%
    17:00 +13°C° 0.1 mm 6 m/s 719 mmHg 81%
    18:00 +13°C° 0.1 mm 6 m/s 719 mmHg 84%
    19:00 +12°C° 0 mm 5 m/s 719 mmHg 87%
    20:00 +10°C° 0 mm 5 m/s 719 mmHg 91%
    21:00 +10°C° 0 mm 4 m/s 719 mmHg 95%
    22:00 +10°C° 0 mm 4 m/s 719 mmHg 95%
    23:00 +10°C° 0 mm 4 m/s 719 mmHg 95%

    30 Agosto, Sexta-feira

    Tempo Temperatura Precipitação Vento Pressão Humidade
    00:00 +8°C° 0 mm 4 m/s 719 mmHg 95%
    01:00 +10°C° 0 mm 4 m/s 719 mmHg 95%
    02:00 +10°C° 0 mm 3 m/s 719 mmHg 94%
    03:00 +10°C° 0 mm 3 m/s 718 mmHg 93%
    04:00 +10°C° 0 mm 3 m/s 718 mmHg 93%
    05:00 +10°C° 0 mm 4 m/s 718 mmHg 93%
    06:00 +10°C° 0 mm 4 m/s 718 mmHg 94%
    07:00 +10°C° 0 mm 5 m/s 718 mmHg 92%
    08:00 +12°C° 0 mm 5 m/s 718 mmHg 90%
    09:00 +13°C° 0 mm 6 m/s 718 mmHg 89%
    10:00 +12°C° 0 mm 7 m/s 718 mmHg 85%
    11:00 +13°C° 0 mm 8 m/s 718 mmHg 82%
    12:00 +15°C° 0 mm 8 m/s 718 mmHg 78%
    13:00 +13°C° 0 mm 8 m/s 717 mmHg 81%
    14:00 +13°C° 0 mm 8 m/s 717 mmHg 84%
    15:00 +12°C° 0 mm 8 m/s 716 mmHg 87%
    16:00 +12°C° 0.5 mm 8 m/s 716 mmHg 89%
    17:00 +12°C° 0.5 mm 8 m/s 715 mmHg 90%
    18:00 +11°C° 0.5 mm 7 m/s 715 mmHg 92%
    19:00 +11°C° 0.4 mm 8 m/s 715 mmHg 92%
    20:00 +11°C° 0.4 mm 8 m/s 714 mmHg 93%
    21:00 +10°C° 0.4 mm 8 m/s 714 mmHg 93%
    22:00 +10°C° 0.1 mm 8 m/s 714 mmHg 93%
    23:00 +10°C° 0.1 mm 7 m/s 714 mmHg 93%

    31 Agosto, Sábado

    Tempo Temperatura Precipitação Vento Pressão Humidade
    00:00 +10°C° 0.1 mm 7 m/s 713 mmHg 93%
    01:00 +10°C° 0.2 mm 7 m/s 713 mmHg 94%
    02:00 +9°C° 0.2 mm 6 m/s 713 mmHg 94%
    03:00 +9°C° 0.2 mm 5 m/s 713 mmHg 94%
    04:00 +8°C° 0 mm 5 m/s 713 mmHg 95%
    05:00 +6°C° 0 mm 4 m/s 713 mmHg 96%
    06:00 +5°C° 0 mm 3 m/s 713 mmHg 97%
    07:00 +6°C° 0 mm 4 m/s 714 mmHg 93%
    08:00 +8°C° 0 mm 4 m/s 715 mmHg 88%
    09:00 +9°C° 0 mm 5 m/s 715 mmHg 84%
    10:00 +10°C° 0.1 mm 5 m/s 715 mmHg 78%
    11:00 +12°C° 0.1 mm 5 m/s 716 mmHg 72%
    12:00 +13°C° 0.1 mm 6 m/s 716 mmHg 66%
    13:00 +13°C° 0.1 mm 6 m/s 716 mmHg 66%
    14:00 +13°C° 0.1 mm 5 m/s 716 mmHg 66%
    15:00 +13°C° 0.1 mm 5 m/s 716 mmHg 66%
    16:00 +12°C° 0.1 mm 5 m/s 716 mmHg 72%
    17:00 +10°C° 0.1 mm 5 m/s 716 mmHg 77%
    18:00 +10°C° 0.1 mm 4 m/s 716 mmHg 82%
    19:00 +8°C° 0 mm 4 m/s 716 mmHg 85%
    20:00 +7°C° 0 mm 4 m/s 717 mmHg 88%
    21:00 +5°C° 0 mm 4 m/s 717 mmHg 91%
    22:00 +5°C° 0 mm 4 m/s 717 mmHg 92%
    23:00 +4°C° 0 mm 4 m/s 717 mmHg 93%
    Mostrar mais